#timestamp,LO_Frequency,Hit 
1499450415.5,286045987.9,N
1499450435.3,286045988.1,N
1499450455.2,286045988.6,N
1499450475.9,286045989.9,N
1499450495.7,286045987.8,N
1499450515.6,286045986.9,N
1499450535.4,286045987.3,N
1499450555.2,286045988.4,N
1499450575.1,286045987.4,N
1499450576.0,286045987.4,N
1499450595.8,286045988.1,N
1499450615.7,286045987.1,N
1499450635.5,286045987.7,N
1499450655.3,286045987.3,N
1499450675.2,286045987.4,N
1499450695.0,286045986.9,N
1499450695.9,286045986.9,N
1499450715.8,286045989.7,N
1499450735.6,286045989.6,N
1499450755.4,286045988.7,N
1499450775.3,286045989.0,N
1499450795.1,286045989.1,N
1499450815.8,286045987.3,N
1499450835.7,286045989.7,N
1499450855.5,286045988.8,N
1499450875.4,286045988.5,N
1499450895.2,286045990.8,N
1499450915.0,286045988.6,N
1499450915.9,286045988.6,N
1499450935.8,286045986.9,N
1499450955.6,286045986.9,N
1499451005.5,286045987.5,Y
1499451015.4,286046445.1,N
1499451035.2,286047000.3,N
1499451055.1,286047000.8,N
1499451056.0,286047000.8,N
1499451075.8,286047001.2,N
1499451095.7,286047001.2,N
1499451115.5,286047001.0,N
1499451135.3,286047000.7,N
1499451155.2,286047001.2,N
1499451175.0,286047000.4,N
1499451175.9,286047000.4,N
1499451195.8,286047001.0,N
1499451215.6,286046998.3,N
1499451235.4,286047000.5,N
1499451255.3,286047000.7,N
1499451275.1,286047000.8,N
1499451295.9,286047001.0,N
1499451315.7,286047000.7,N
1499451335.5,286047000.8,N
1499451355.4,286046998.6,N
1499451375.2,286046998.6,N
1499451395.0,286047001.1,N
1499451395.9,286047001.1,N
1499451415.8,286046998.4,N
1499451435.6,286046998.5,N
1499451455.5,286046999.0,N
1499451475.3,286046998.8,N
1499451495.1,286046999.3,N
1499451515.9,286046998.8,N
1499451535.7,286046999.4,N
1499451555.5,286046998.6,N
1499451575.4,286047000.5,N
1499451595.2,286047001.0,N
1499451615.1,286047000.5,N
1499451616.0,286047000.5,N
1499451635.8,286046998.2,N
1499451655.6,286046998.9,N
1499451675.5,286046996.6,N
1499451695.3,286046998.7,N
1499451715.1,286046998.9,N
1499451735.9,286046999.3,N
1499451755.7,286046999.2,N
1499451775.6,286046996.5,N
1499451795.4,286046999.2,N
1499451815.2,286046998.7,N
1499451835.1,286046998.3,N
1499451836.0,286046998.3,N
1499451855.8,286046996.9,N
1499451875.7,286046999.0,N
1499451895.5,286046999.0,N
1499451915.3,286046998.3,N
1499451935.2,286046998.8,N
1499451955.0,286046996.6,N
1499451955.9,286046996.6,N
1499451975.7,286046999.6,N
1499451995.6,286046999.6,N
1499452015.4,286046998.8,N
1499452035.3,286046999.4,N
1499452055.1,286046998.4,N
1499452056.0,286046998.4,N
1499452075.8,286046999.2,N
1499452095.7,286046998.6,N
1499452115.5,286046996.7,N
1499452135.4,286046996.5,N
1499452155.2,286046997.8,N
1499452175.0,286046996.9,N
1499452175.9,286046996.9,N
1499452195.8,286046997.1,N
1499452215.6,286046997.4,N
1499452235.5,286046997.0,N
1499452255.3,286046996.5,N
1499452275.1,286046999.5,N
1499452295.9,286046997.2,N
1499452315.7,286046996.8,N
1499452335.5,286046999.6,N
1499452355.4,286046997.1,N
1499452375.2,286046997.3,N
1499452395.1,286046997.8,N
1499452396.0,286046997.8,N
1499452415.8,286046997.3,N
1499452435.6,286046997.8,N
1499452455.5,286046995.0,N
1499452475.3,286046995.1,N
1499452495.2,286046997.9,N
1499452515.9,286046997.9,N
1499452535.7,286046996.8,N
1499452555.6,286046997.4,N
1499452575.4,286046997.7,N
1499452595.2,286046997.9,N
1499452615.1,286046997.6,N
1499452616.0,286046997.6,N
1499452635.8,286046995.0,N
1499452655.7,286046995.4,N
1499452675.5,286046995.7,N
1499452695.3,286046995.5,N
1499452715.2,286046995.0,N
1499452735.0,286046995.5,N
1499452735.9,286046995.5,N
1499452755.7,286046995.2,N
1499452775.6,286046995.0,N
1499452795.4,286046995.0,N
1499452815.3,286046997.6,N
1499452835.1,286046997.0,N
1499452836.0,286046997.0,N
1499452855.8,286046997.4,N
1499452875.7,286046997.8,N
1499452895.5,286046997.2,N
1499452915.3,286046998.0,N
1499452935.2,286046996.5,N
1499452955.0,286046996.9,N
1499452955.9,286046996.9,N
1499452975.8,286046999.2,N
1499452995.6,286046996.7,N
1499453015.4,286046997.0,N
1499453035.3,286046996.8,N
1499453055.1,286046996.7,N
1499453075.9,286046997.0,N
1499453095.7,286046996.6,N
1499453115.5,286046996.5,N
1499453135.4,286046997.0,N
1499453155.2,286046998.5,N
1499453175.0,286046998.7,N
1499453176.0,286046998.7,N
1499453195.8,286046998.9,N
1499453215.6,286046998.9,N
1499453235.5,286047000.9,N
1499453255.3,286047001.2,N
1499453275.1,286046998.3,N
1499453295.9,286047001.2,N
1499453345.7,286046998.1,Y
1499453355.7,286047000.2,N
1499453375.5,286047002.1,N
1499453395.3,286047002.2,N
1499453415.2,286047001.6,N
1499453435.0,286047004.0,N
1499453435.9,286047004.0,N
1499453455.8,286047001.7,N
1499453475.6,286047003.6,N
1499453495.4,286047004.1,N
1499453515.3,286047003.7,N
1499453535.1,286047005.9,N
1499453555.8,286047005.9,N
1499453575.7,286047005.8,N
1499453595.5,286047005.9,N
1499453615.4,286047003.3,N
1499453635.2,286047003.3,N
1499453655.0,286047005.5,N
1499453655.9,286047005.5,N
1499453675.8,286047007.2,N
1499453695.6,286047006.9,N
1499453715.4,286047004.5,N
1499453735.3,286047005.1,N
1499453755.1,286047004.9,N
1499453775.9,286047005.4,N
1499453795.7,286047007.5,N
1499453815.5,286047007.1,N
1499453835.4,286047007.3,N
1499453855.2,286047004.5,N
1499453875.0,286047007.6,N
1499453875.9,286047007.6,N
1499453895.8,286047005.0,N
1499453915.6,286047005.3,N
1499453935.5,286047005.4,N
1499453955.3,286047005.8,N
1499453975.1,286047005.6,N
1499453995.9,286047005.4,N
